When you browse on this site, cookies collect data to enhance your experience and personalize the content and advertising you see.
Visit our Privacy Policy to learn more. By continuing to use the site, you agree to this use of cookies and data.
  • In Hungary
  • List of Countries
  • For 7 days
  • Water Temperature
  • Satellite Maps
  • Weather Map
  • News
  • Weather Widgets
  • user-avatar
    Login

    Hourly Weather Lopatino

    Today, 17 November, Saturday

    Time Temperature Precipitation Wind Pressure Humidity
    00:00 -2°C° 0 mm 1 mps 764 mmHg 25%
    01:00 -2°C° 0 mm 1 mps 764 mmHg 25%
    02:00 -2°C° 0 mm 1 mps 764 mmHg 25%
    03:00 -2°C° 0 mm 1 mps 764 mmHg 28%
    04:00 -2°C° 0 mm 1 mps 763 mmHg 29%
    05:00 -4°C° 0 mm 2 mps 763 mmHg 29%
    06:00 -4°C° 0 mm 2 mps 762 mmHg 30%
    07:00 -4°C° 0 mm 2 mps 762 mmHg 31%
    08:00 -4°C° 0 mm 2 mps 762 mmHg 32%
    09:00 -4°C° 0 mm 2 mps 761 mmHg 32%
    10:00 -4°C° 0 mm 3 mps 761 mmHg 32%
    11:00 -2°C° 0 mm 3 mps 760 mmHg 31%
    12:00 -1°C° 0 mm 3 mps 760 mmHg 30%
    13:00 -1°C° 0 mm 4 mps 759 mmHg 32%
    14:00 -1°C° 0 mm 4 mps 758 mmHg 33%
    15:00 -1°C° 0 mm 4 mps 758 mmHg 35%
    16:00 -2°C° 0 mm 4 mps 757 mmHg 37%
    17:00 -2°C° 0 mm 4 mps 756 mmHg 39%
    18:00 -3°C° 0 mm 4 mps 756 mmHg 41%
    19:00 -4°C° 0 mm 5 mps 755 mmHg 43%
    20:00 -4°C° 0 mm 5 mps 754 mmHg 44%
    21:00 -4°C° 0 mm 5 mps 754 mmHg 46%
    22:00 -4°C° 0 mm 5 mps 753 mmHg 49%
    23:00 -4°C° 0 mm 5 mps 752 mmHg 51%

    Tomorrow, 18 November, Sunday

    Time Temperature Precipitation Wind Pressure Humidity
    00:00 -4°C° 0 mm 5 mps 752 mmHg 54%
    01:00 -4°C° 0.2 mm 5 mps 751 mmHg 62%
    02:00 -4°C° 0.2 mm 5 mps 751 mmHg 71%
    03:00 -4°C° 0.2 mm 5 mps 750 mmHg 79%
    04:00 -4°C° 0.1 mm 5 mps 750 mmHg 80%
    05:00 -4°C° 0.1 mm 5 mps 749 mmHg 82%
    06:00 -3°C° 0.1 mm 4 mps 748 mmHg 84%
    07:00 -3°C° 0 mm 4 mps 748 mmHg 84%
    08:00 -3°C° 0 mm 4 mps 748 mmHg 83%
    09:00 -3°C° 0 mm 4 mps 748 mmHg 83%
    10:00 -2°C° 0 mm 3 mps 748 mmHg 83%
    11:00 -1°C° 0 mm 3 mps 748 mmHg 83%
    12:00 -1°C° 0 mm 3 mps 748 mmHg 83%
    13:00 -1°C° 0 mm 3 mps 748 mmHg 83%
    14:00 -1°C° 0 mm 2 mps 748 mmHg 84%
    15:00 -1°C° 0 mm 2 mps 748 mmHg 84%
    16:00 -1°C° 0 mm 2 mps 748 mmHg 86%
    17:00 -1°C° 0 mm 2 mps 748 mmHg 87%
    18:00 -1°C° 0 mm 2 mps 749 mmHg 89%
    19:00 -1°C° 0 mm 2 mps 749 mmHg 89%
    20:00 +1°C° 0 mm 1 mps 749 mmHg 90%
    21:00 +1°C° 0 mm 1 mps 749 mmHg 91%
    22:00 0°C° 0 mm 1 mps 749 mmHg 91%
    23:00 0°C° 0 mm 1 mps 750 mmHg 91%

    Day after tomorrow, 19 November, Monday

    Time Temperature Precipitation Wind Pressure Humidity
    00:00 0°C° 0 mm 1 mps 750 mmHg 92%
    01:00 0°C° 0 mm 1 mps 750 mmHg 92%
    02:00 0°C° 0 mm 1 mps 750 mmHg 92%
    03:00 0°C° 0 mm 1 mps 751 mmHg 92%
    04:00 0°C° 0 mm 1 mps 751 mmHg 92%
    05:00 -1°C° 0 mm 0 mps 751 mmHg 93%
    06:00 -1°C° 0 mm 0 mps 752 mmHg 93%
    07:00 -1°C° 0 mm 0 mps 752 mmHg 93%
    08:00 -1°C° 0 mm 0 mps 752 mmHg 93%
    09:00 -1°C° 0 mm 0 mps 753 mmHg 93%
    10:00 0°C° 0 mm 0 mps 753 mmHg 91%
    11:00 +1°C° 0 mm 1 mps 754 mmHg 88%
    12:00 +2°C° 0 mm 1 mps 754 mmHg 86%
    13:00 +2°C° 0 mm 1 mps 754 mmHg 87%
    14:00 +2°C° 0 mm 1 mps 754 mmHg 88%
    15:00 +2°C° 0 mm 1 mps 754 mmHg 89%
    16:00 +1°C° 0 mm 1 mps 754 mmHg 91%
    17:00 +1°C° 0 mm 1 mps 755 mmHg 93%
    18:00 -2°C° 0 mm 2 mps 755 mmHg 94%
    19:00 -2°C° 0 mm 2 mps 755 mmHg 94%
    20:00 -2°C° 0 mm 2 mps 755 mmHg 95%
    21:00 -2°C° 0 mm 2 mps 755 mmHg 95%
    22:00 -2°C° 0 mm 2 mps 755 mmHg 94%
    23:00 -2°C° 0 mm 2 mps 755 mmHg 94%

    20 November, Tuesday

    Time Temperature Precipitation Wind Pressure Humidity
    00:00 -2°C° 0 mm 2 mps 755 mmHg 94%
    01:00 -2°C° 0 mm 2 mps 755 mmHg 94%
    02:00 -2°C° 0 mm 2 mps 755 mmHg 93%
    03:00 -2°C° 0 mm 2 mps 755 mmHg 93%
    04:00 -2°C° 0 mm 2 mps 755 mmHg 92%
    05:00 -2°C° 0 mm 2 mps 754 mmHg 91%
    06:00 -3°C° 0 mm 2 mps 754 mmHg 90%
    07:00 -3°C° 0 mm 2 mps 754 mmHg 87%
    08:00 -3°C° 0 mm 2 mps 754 mmHg 85%
    09:00 -3°C° 0 mm 2 mps 753 mmHg 82%
    10:00 -2°C° 0 mm 2 mps 753 mmHg 79%
    11:00 -2°C° 0 mm 2 mps 753 mmHg 76%
    12:00 -2°C° 0 mm 2 mps 752 mmHg 73%
    13:00 -2°C° 0.1 mm 2 mps 752 mmHg 74%
    14:00 -2°C° 0.1 mm 2 mps 752 mmHg 76%
    15:00 -2°C° 0.1 mm 2 mps 751 mmHg 78%
    16:00 -2°C° 0.1 mm 2 mps 751 mmHg 81%
    17:00 -3°C° 0.1 mm 2 mps 751 mmHg 84%
    18:00 -3°C° 0.1 mm 2 mps 750 mmHg 87%
    19:00 -3°C° 0.1 mm 2 mps 750 mmHg 87%
    20:00 -3°C° 0.1 mm 2 mps 750 mmHg 88%
    21:00 -3°C° 0.1 mm 2 mps 750 mmHg 89%
    22:00 -3°C° 0 mm 2 mps 750 mmHg 89%
    23:00 -3°C° 0 mm 2 mps 749 mmHg 89%

    21 November, Wednesday

    Time Temperature Precipitation Wind Pressure Humidity
    00:00 -3°C° 0 mm 2 mps 749 mmHg 90%
    01:00 -3°C° 0 mm 2 mps 749 mmHg 91%
    02:00 -4°C° 0 mm 2 mps 749 mmHg 92%
    03:00 -5°C° 0 mm 3 mps 749 mmHg 93%
    04:00 -5°C° 0 mm 3 mps 749 mmHg 93%
    05:00 -5°C° 0 mm 3 mps 749 mmHg 93%
    06:00 -4°C° 0 mm 3 mps 749 mmHg 93%
    07:00 -4°C° 0 mm 3 mps 749 mmHg 92%
    08:00 -4°C° 0 mm 3 mps 749 mmHg 92%
    09:00 -4°C° 0 mm 3 mps 749 mmHg 91%
    10:00 -4°C° 0 mm 3 mps 749 mmHg 87%
    11:00 -2°C° 0 mm 3 mps 749 mmHg 83%
    12:00 -2°C° 0 mm 4 mps 749 mmHg 79%
    13:00 -3°C° 0 mm 4 mps 749 mmHg 79%
    14:00 -3°C° 0 mm 4 mps 749 mmHg 80%
    15:00 -3°C° 0 mm 4 mps 749 mmHg 80%
    16:00 -3°C° 0 mm 4 mps 749 mmHg 79%
    17:00 -3°C° 0 mm 4 mps 749 mmHg 79%
    18:00 -4°C° 0 mm 4 mps 749 mmHg 79%
    19:00 -4°C° 0 mm 4 mps 750 mmHg 80%
    20:00 -4°C° 0 mm 4 mps 750 mmHg 82%
    21:00 -4°C° 0 mm 4 mps 750 mmHg 84%
    22:00 -4°C° 0 mm 3 mps 750 mmHg 85%
    23:00 -2°C° 0 mm 3 mps 750 mmHg 87%

    22 November, Thursday

    Time Temperature Precipitation Wind Pressure Humidity
    00:00 -2°C° 0 mm 3 mps 750 mmHg 89%
    01:00 -3°C° 0 mm 4 mps 750 mmHg 88%
    02:00 -4°C° 0 mm 4 mps 750 mmHg 87%
    03:00 -4°C° 0 mm 4 mps 750 mmHg 86%
    04:00 -4°C° 0 mm 4 mps 750 mmHg 84%
    05:00 -5°C° 0 mm 3 mps 750 mmHg 83%
    06:00 -5°C° 0 mm 3 mps 750 mmHg 81%
    07:00 -5°C° 0 mm 3 mps 750 mmHg 82%
    08:00 -5°C° 0 mm 3 mps 750 mmHg 83%
    09:00 -5°C° 0 mm 4 mps 750 mmHg 83%
    10:00 -5°C° 0 mm 4 mps 750 mmHg 81%
    11:00 -4°C° 0 mm 4 mps 750 mmHg 78%
    12:00 -5°C° 0 mm 5 mps 750 mmHg 76%
    13:00 -5°C° 0 mm 5 mps 750 mmHg 76%
    14:00 -5°C° 0 mm 5 mps 750 mmHg 77%
    15:00 -5°C° 0 mm 5 mps 749 mmHg 77%
    16:00 -5°C° 0 mm 5 mps 749 mmHg 78%
    17:00 -5°C° 0 mm 5 mps 749 mmHg 80%
    18:00 -5°C° 0 mm 5 mps 750 mmHg 81%
    19:00 -5°C° 0 mm 5 mps 750 mmHg 81%
    20:00 -5°C° 0 mm 5 mps 750 mmHg 81%
    21:00 -4°C° 0 mm 5 mps 750 mmHg 81%
    22:00 -4°C° 0 mm 5 mps 750 mmHg 83%
    23:00 -4°C° 0 mm 4 mps 750 mmHg 85%
    Show more